This is the latest recevied weather packets stored in our database for station/object KD0MAC. If no packets are shown the sender has not sent any weather packets the latest 1 day(s).
| Time | Temp. | Humidity | Pressure | Rain* | Wind** | Luminosity | Snow |
|---|---|---|---|---|---|---|---|
| 1778017296 | 8.89° C | 71% | 1013.9 hPa | 0 mm | 0 m/s | 49 W/m² | - |
| 1778016993 | 8.89° C | 69% | 1013.9 hPa | 0 mm | 0 m/s | 52 W/m² | - |
| 1778016693 | 9.44° C | 67% | 1013.9 hPa | 0 mm | 0.89 m/s, 143° | 46 W/m² | - |
| 1778016393 | 9.44° C | 64% | 1013.5 hPa | 0 mm | 0.45 m/s, 94° | 51 W/m² | - |
| 1778016093 | 9.44° C | 63% | 1013.5 hPa | 0 mm | 0.45 m/s, 161° | 53 W/m² | - |
| 1778015794 | 10° C | 62% | 1013.5 hPa | 0 mm | 0.89 m/s, 110° | 59 W/m² | - |
| 1778015494 | 10° C | 62% | 1013.2 hPa | 0 mm | 0.45 m/s, 71° | 105 W/m² | - |
| 1778015194 | 10° C | 60% | 1013.2 hPa | 0 mm | 0.89 m/s, 74° | 93 W/m² | - |
| 1778014893 | 10.56° C | 60% | 1013.5 hPa | 0 mm | 0.89 m/s, 66° | 87 W/m² | - |
| 1778014594 | 10.56° C | 60% | 1013.5 hPa | 0 mm | 0.45 m/s, 104° | 84 W/m² | - |
| 1778014294 | 10.56° C | 59% | 1013.5 hPa | 0 mm | 0.45 m/s, 124° | 102 W/m² | - |
| 1778014003 | 10.56° C | 59% | 1013.5 hPa | 0 mm | 0.89 m/s, 79° | 137 W/m² | - |
| 1778013694 | 10.56° C | 60% | 1013.5 hPa | 0 mm | 0.45 m/s, 100° | 151 W/m² | - |
| 1778013393 | 10.56° C | 59% | 1013.5 hPa | 0 mm | 0.89 m/s, 25° | 160 W/m² | - |
| 1778013094 | 10.56° C | 59% | 1013.9 hPa | 0 mm | 0.89 m/s, 69° | 131 W/m² | - |
| 1778012794 | 10.56° C | 59% | 1013.9 hPa | 0 mm | 1.34 m/s, 333° | 144 W/m² | - |
| 1778012493 | 10.56° C | 60% | 1013.9 hPa | 0 mm | 0.89 m/s, 119° | 176 W/m² | - |
| 1778012196 | 10.56° C | 61% | 1013.9 hPa | 0 mm | 0 m/s | 191 W/m² | - |
| 1778011896 | 10° C | 62% | 1013.9 hPa | 0 mm | 0.89 m/s, 104° | 126 W/m² | - |
| 1778011594 | 10° C | 61% | 1013.9 hPa | 0 mm | 0.89 m/s, 62° | 142 W/m² | - |
| 1778011295 | 10° C | 62% | 1014.2 hPa | 0 mm | 0 m/s | 125 W/m² | - |
| 1778010993 | 10° C | 62% | 1014.2 hPa | 0 mm | 0.89 m/s, 8° | 137 W/m² | - |
| 1778010693 | 10° C | 63% | 1014.2 hPa | 0 mm | 0.89 m/s, 87° | 108 W/m² | - |
| 1778010395 | 10° C | 63% | 1014.2 hPa | 0 mm | 0.89 m/s, 90° | 111 W/m² | - |
| 1778009793 | 10° C | 63% | 1014.2 hPa | 0 mm | 0.89 m/s, 96° | 98 W/m² | - |
* Rain latest hour (hover to see other rain measurements)
** Current wind speed in m/s (hover to see current wind gust speed)